[[{"header":{"parameterUnit":"m.s-1","parameterCategory":1,"la1":30.2991,"la2":30.254,"lo1":-89.0895,"lo2":-89.0444,"dy":0.0017,"dx":0.0017,"nx":28,"ny":28,"refTime":"2024-08-14T21:00:00:Z","depth":0,"parameterNumber":2,"parameterNumberName":"U-component_of_WINDS"},"data":[0,0,0,0,0,0,0,0,0,0,0,0,0,0,0,0,0,0,0,0,0,0,0,0,0,0,0,0,0,0,0,0,0,0,0,0,0,0,0,0,0,0,0,0,0,0,0,0,0,0,0,0,0,0,0,0,0,0,0.717,0.717,0,0.7168,0.7168,0.7168,0.7124,0.7122,0.7121,0.712,0.7122,0.7123,0.7124,0,0,0,0,0,0,0,0,0,0,0,0,0,0.7138,0.7139,0.717,0.717,0.717,0.7168,0.7168,0.7168,0.7124,0.7122,0.7121,0.712,0.7122,0.7123,0.7125,0,0,0,0,0,0,0,0,0,0,0,0,0,0.7146,0.714,0.717,0.7148,0.7146,0.7168,0.7168,0.7168,0.7124,0.7122,0.7121,0.7119,0.7121,0.7123,0.7125,0.717,0,0,0.713,0.7131,0,0,0,0,0,0,0,0,0.7146,0.7147,0.7151,0.7149,0.7147,0.7144,0.7157,0.7169,0.7124,0.7132,0.712,0.7118,0.7131,0.7132,0.7136,0.717,0.717,0.713,0.7131,0.7132,0.7132,0,0,0,0,0,0,0,0.7145,0.7147,0.7169,0.7151,0.7149,0.7138,0.7138,0.7159,0.7142,0.7132,0.7128,0.7128,0.713,0.7134,0.7135,0.717,0.713,0.7132,0.7133,0.7133,0.724,0.7242,0,0,0,0,0,0,0.7147,0.7147,0.7169,0.7169,0.7142,0.714,0.714,0.7147,0.7141,0.7139,0.713,0.7126,0.7132,0.7133,0.7135,0.7187,0.7132,0.7133,0.7134,0.7238,0.7241,0.7243,0,0,0,0,0,0,0.7147,0.715,0.7169,0.7157,0.7159,0.7143,0.7151,0.7148,0.7152,0.714,0.7137,0.7137,0.7131,0.7133,0.7161,0.7187,0.7134,0.7136,0.7236,0.7239,0.7242,0.7292,0,0,0,0,0,0,0.7146,0.715,0.7166,0.7158,0.716,0.7195,0.7153,0.7149,0.7154,0.715,0.7146,0.7144,0.7129,0.7159,0.7163,0.7188,0.7137,0.7234,0.7237,0.7241,0.7288,0.7296,0.7303,0,0,0,0,0,0.7145,0.7182,0.7167,0.717,0.718,0.7196,0.7198,0.7179,0.7157,0.7173,0.7165,0.7144,0.7183,0.7162,0.7166,0.7192,0.7232,0.7236,0.724,0.7284,0.7294,0.7303,0,0,0,0,0,0,0.7196,0.718,0.7164,0.7199,0.7199,0.7189,0.721,0.719,0.7198,0.7194,0.7171,0.7171,0.7203,0.72,0.7177,0.7235,0.7204,0.7209,0.7236,0.7245,0.7252,0.7253,0.7138,0,0,0,0,0,0.721,0.7224,0.721,0.7242,0.7243,0.7226,0.7233,0.7218,0.7218,0.7218,0.7213,0.7214,0.7226,0.7235,0.7246,0.7287,0.7285,0.7307,0.7314,0.732,0.7325,0.7346,0.7355,0.7256,0.7256,0.7256,0,0,0.7242,0.7235,0.7246,0.7252,0.7251,0.7266,0.7227,0.7245,0.7256,0.7222,0.7247,0.7243,0.7243,0.7278,0.7292,0.7277,0.7352,0.7325,0.7331,0.7332,0.7351,0.7361,0.7369,0.7259,0.7258,0.7258,0,0,0.7307,0.7303,0.7329,0.7328,0.7325,0.7313,0.7319,0.7311,0.7307,0.7332,0.7306,0.7319,0.7341,0.7342,0.7346,0.7409,0.739,0.7413,0.7453,0.7473,0.7481,0.7488,0.7511,0.7519,0.7418,0.7418,0.7418,0,0.7347,0.7368,0.7345,0.7364,0.7368,0.7335,0.7361,0.7361,0.7363,0.7367,0.7348,0.7374,0.7372,0.7406,0.7421,0.7425,0.7432,0.7414,0.7481,0.7488,0.7494,0.7516,0.7524,0.7421,0.7421,0.742,0.742,0,0.7418,0.7432,0.7454,0.7454,0.746,0.7483,0.7464,0.7473,0.7457,0.7447,0.7473,0.7469,0.7478,0.7485,0.7471,0.7516,0.7506,0.7485,0.7453,0.7507,0.7527,0.7535,0.7425,0.7424,0.7423,0.7423,0,0,0.7517,0.7502,0.751,0.7509,0.7503,0.7515,0.7536,0.7543,0.7551,0.7553,0.757,0.7588,0.7568,0.7572,0.7557,0.7575,0.7625,0.7551,0.7551,0.7565,0.7675,0.7692,0.7702,0.7611,0.7613,0.7614,0.7675,0,0.758,0.7614,0.7593,0.7631,0.7644,0.7612,0.763,0.7628,0.762,0.763,0.7621,0.7634,0.7606,0.7608,0.7624,0.7616,0.7647,0.7611,0.7628,0.7629,0.763,0.7712,0.773,0.7788,0.7683,0.7684,0.7685,0,0.7658,0.7661,0.77,0.7689,0.7694,0.7711,0.7715,0.7725,0.7723,0.7715,0.7718,0.7699,0.7719,0.7687,0.7715,0.7691,0.7696,0.7693,0.7695,0.7697,0.7661,0.7717,0.7806,0.7815,0.7697,0.7696,0.7695,0,0.7727,0.7741,0.7765,0.7766,0.7754,0.7767,0.7763,0.7758,0.7763,0.7767,0.777,0.7777,0.7781,0.7787,0.777,0.7747,0.78,0.7766,0.7795,0.7796,0.7809,0.7808,0.7901,0.7811,0.7811,0.7811,0.7811,0,0.78,0.7825,0.7796,0.7811,0.7838,0.7813,0.7841,0.7834,0.783,0.7843,0.7816,0.783,0.7806,0.7817,0.7804,0.7829,0.7831,0.7826,0.7823,0.7829,0.783,0.7834,0.783,0.7813,0.7813,0.7812,0.7812,0,0.7882,0.7863,0.7888,0.7874,0.7871,0.7892,0.788,0.7894,0.7882,0.79,0.7903,0.7885,0.7897,0.788,0.789,0.7881,0.7916,0.7906,0.7917,0.7914,0.7944,0.7942,0.8043,0.8055,0.7957,0.7958,0.7959,0,0.7931,0.7949,0.7936,0.7942,0.7939,0.795,0.7955,0.7931,0.7937,0.7934,0.7948,0.7957,0.7964,0.7984,0.7973,0.7981,0.7971,0.8006,0.7972,0.7978,0.7972,0.7972,0.7973,0.8013,0.8015,0.8016,0.8016,0,0.8019,0.8008,0.8015,0.8018,0.8023,0.8025,0.8025,0.8032,0.8007,0.8015,0.8026,0.803,0.804,0.805,0.8054,0.805,0.803,0.8026,0.8034,0.8041,0.8047,0.8045,0.7936,0.8025,0.8024,0.8023,0.8023,0.8023,0.8086,0.81,0.8093,0.8101,0.8098,0.8098,0.811,0.8099,0.8107,0.8112,0.8097,0.8111,0.8107,0.811,0.8109,0.812,0.8105,0.8116,0.8119,0.8122,0.8127,0.8044,0.8121,0.8121,0.8121,0.812,0.812,0,0.8173,0.8166,0.8174,0.8173,0.818,0.8157,0.8155,0.8162,0.8175,0.8172,0.8177,0.819,0.8198,0.8187,0.8193,0.8205,0.8195,0.8207,0.8207,0.8207,0.8139,0.8133,0.8215,0.8215,0.8215,0.8215,0.8215,0.8215,0.8219,0.8242,0.823,0.8251,0.8244,0.8256,0.8257,0.8257,0.8254,0.8269,0.8275,0.8267,0.826,0.8266,0.8273,0.8269,0.8274,0.8289,0.8283,0.8221,0.8211,0.8203,0.8196,0.829,0.829,0.8349,0.8349,0.835]},{"header":{"parameterUnit":"m.s-1","parameterCategory":1,"la1":30.2991,"la2":30.254,"lo1":-89.0895,"lo2":-89.0444,"dy":0.0017,"dx":0.0017,"nx":28,"ny":28,"refTime":"2024-08-14T21:00:00:Z","depth":0,"parameterNumber":3,"parameterNumberName":"V-component_of_WINDS"},"data":[0,0,0,0,0,0,0,0,0,0,0,0,0,0,0,0,0,0,0,0,0,0,0,0,0,0,0,0,0,0,0,0,0,0,0,0,0,0,0,0,0,0,0,0,0,0,0,0,0,0,0,0,0,0,0,0,0,0,-0.3755,-0.3755,0,-0.3749,-0.3749,-0.3749,-0.3721,-0.372,-0.372,-0.3719,-0.3714,-0.3714,-0.3715,0,0,0,0,0,0,0,0,0,0,0,0,0,-0.3744,-0.3744,-0.3755,-0.3755,-0.3755,-0.3749,-0.3749,-0.3749,-0.3721,-0.372,-0.372,-0.3719,-0.3714,-0.3714,-0.3715,0,0,0,0,0,0,0,0,0,0,0,0,0,-0.3744,-0.3744,-0.3755,-0.374,-0.3739,-0.3749,-0.3749,-0.3749,-0.3721,-0.372,-0.3719,-0.3719,-0.3714,-0.3714,-0.3715,-0.3739,0,0,-0.3717,-0.3718,0,0,0,0,0,0,0,0,-0.3744,-0.3745,-0.3743,-0.3742,-0.374,-0.3735,-0.3743,-0.3746,-0.3722,-0.3728,-0.3719,-0.3718,-0.3722,-0.3722,-0.3723,-0.3739,-0.3739,-0.3717,-0.3718,-0.3718,-0.3718,0,0,0,0,0,0,0,-0.3744,-0.3745,-0.3753,-0.3743,-0.3741,-0.3734,-0.3733,-0.3743,-0.3731,-0.3728,-0.3725,-0.3725,-0.3721,-0.3722,-0.3723,-0.3739,-0.3717,-0.3718,-0.3718,-0.3719,-0.3775,-0.3776,0,0,0,0,0,0,-0.3746,-0.3745,-0.3753,-0.3753,-0.374,-0.3735,-0.3734,-0.3738,-0.373,-0.3728,-0.3726,-0.3724,-0.3722,-0.3722,-0.3722,-0.3751,-0.3718,-0.3719,-0.3719,-0.3774,-0.3775,-0.3776,0,0,0,0,0,0,-0.3746,-0.3747,-0.3753,-0.3748,-0.3748,-0.3737,-0.374,-0.3738,-0.3739,-0.3729,-0.3727,-0.373,-0.3721,-0.3721,-0.3735,-0.375,-0.3719,-0.372,-0.3772,-0.3774,-0.3775,-0.3807,0,0,0,0,0,0,-0.3746,-0.3747,-0.3756,-0.3749,-0.3749,-0.3766,-0.3741,-0.3739,-0.374,-0.3738,-0.3732,-0.373,-0.372,-0.3734,-0.3736,-0.375,-0.372,-0.3771,-0.3773,-0.3775,-0.3805,-0.381,-0.3814,0,0,0,0,0,-0.3745,-0.3765,-0.3757,-0.3758,-0.376,-0.3767,-0.3767,-0.3755,-0.3742,-0.3751,-0.3744,-0.373,-0.3748,-0.3736,-0.3738,-0.3753,-0.377,-0.3772,-0.3775,-0.3803,-0.3809,-0.3814,0,0,0,0,0,0,-0.3776,-0.3764,-0.3754,-0.3773,-0.3771,-0.3762,-0.3774,-0.3761,-0.3764,-0.3761,-0.3746,-0.3745,-0.3761,-0.3758,-0.3745,-0.3776,-0.3757,-0.3759,-0.3777,-0.3783,-0.3787,-0.3788,-0.3721,0,0,0,0,0,-0.3784,-0.3791,-0.3781,-0.3798,-0.3797,-0.3786,-0.3788,-0.3779,-0.3777,-0.3776,-0.377,-0.3769,-0.3774,-0.3778,-0.3782,-0.3804,-0.3803,-0.3815,-0.3819,-0.3823,-0.3826,-0.3838,-0.3843,-0.3784,-0.3784,-0.3784,0,0,-0.3802,-0.3797,-0.3802,-0.3804,-0.3801,-0.3809,-0.3785,-0.3794,-0.38,-0.3777,-0.379,-0.3786,-0.3784,-0.3802,-0.3809,-0.38,-0.3842,-0.3826,-0.3829,-0.383,-0.3841,-0.3846,-0.3851,-0.3785,-0.3785,-0.3785,0,0,-0.384,-0.3836,-0.385,-0.3848,-0.3844,-0.3836,-0.384,-0.3833,-0.3829,-0.3842,-0.3825,-0.3832,-0.3841,-0.384,-0.3841,-0.3877,-0.3865,-0.3879,-0.3903,-0.3914,-0.3919,-0.3923,-0.3937,-0.3942,-0.3882,-0.3882,-0.3882,0,-0.3863,-0.3874,-0.3859,-0.3869,-0.387,-0.3849,-0.3864,-0.3863,-0.3861,-0.3863,-0.3851,-0.3862,-0.3859,-0.3877,-0.3886,-0.3887,-0.3891,-0.388,-0.392,-0.3924,-0.3927,-0.394,-0.3945,-0.3883,-0.3883,-0.3883,-0.3883,0,-0.3903,-0.391,-0.3922,-0.3921,-0.3923,-0.3935,-0.3923,-0.3927,-0.3917,-0.391,-0.3923,-0.3919,-0.3922,-0.3925,-0.3915,-0.3942,-0.3936,-0.3922,-0.3903,-0.3935,-0.3947,-0.3952,-0.3886,-0.3885,-0.3885,-0.3884,0,0,-0.396,-0.395,-0.3955,-0.3954,-0.3948,-0.3954,-0.3965,-0.3968,-0.3972,-0.3971,-0.3981,-0.3989,-0.3976,-0.3977,-0.3967,-0.3977,-0.4007,-0.3962,-0.3962,-0.3972,-0.4036,-0.4047,-0.4053,-0.3998,-0.3999,-0.4,-0.4037,0,-0.3997,-0.4015,-0.4002,-0.4023,-0.403,-0.401,-0.402,-0.4018,-0.4011,-0.4017,-0.401,-0.4016,-0.3999,-0.3999,-0.4008,-0.4002,-0.402,-0.3998,-0.4008,-0.4008,-0.401,-0.406,-0.4071,-0.4107,-0.4041,-0.4042,-0.4043,0,-0.4042,-0.4043,-0.4065,-0.4058,-0.406,-0.4069,-0.4071,-0.4076,-0.4073,-0.4067,-0.4068,-0.4056,-0.4066,-0.4047,-0.4062,-0.4047,-0.405,-0.4048,-0.4049,-0.405,-0.4029,-0.4063,-0.4117,-0.4123,-0.405,-0.4049,-0.4049,0,-0.4084,-0.409,-0.4104,-0.4104,-0.4095,-0.4102,-0.4099,-0.4095,-0.4097,-0.4099,-0.41,-0.4103,-0.4104,-0.4107,-0.4095,-0.4082,-0.4112,-0.4091,-0.4109,-0.4109,-0.4117,-0.4117,-0.4174,-0.4117,-0.4117,-0.4117,-0.4117,0,-0.4127,-0.4141,-0.4122,-0.4131,-0.4147,-0.4131,-0.4147,-0.4141,-0.4138,-0.4146,-0.4128,-0.4136,-0.4119,-0.4125,-0.4116,-0.4131,-0.4131,-0.4128,-0.4126,-0.413,-0.4131,-0.4133,-0.4131,-0.4118,-0.4118,-0.4118,-0.4118,0,-0.4176,-0.4164,-0.4178,-0.4168,-0.4166,-0.4178,-0.417,-0.4178,-0.417,-0.418,-0.4182,-0.417,-0.4176,-0.4164,-0.4169,-0.4163,-0.4183,-0.4176,-0.4184,-0.4183,-0.4202,-0.42,-0.4262,-0.427,-0.4208,-0.4208,-0.4209,0,-0.4205,-0.4216,-0.4207,-0.4211,-0.4208,-0.4214,-0.4217,-0.4201,-0.4204,-0.4201,-0.421,-0.4214,-0.4217,-0.4228,-0.422,-0.4224,-0.4217,-0.4239,-0.4218,-0.4222,-0.4219,-0.4219,-0.4221,-0.4244,-0.4245,-0.4245,-0.4246,0,-0.4258,-0.4252,-0.4255,-0.4257,-0.426,-0.426,-0.426,-0.4264,-0.4247,-0.4252,-0.4257,-0.426,-0.4264,-0.4269,-0.4271,-0.4268,-0.4255,-0.4252,-0.4256,-0.4262,-0.4267,-0.4266,-0.4197,-0.4251,-0.425,-0.425,-0.425,-0.425,-0.4299,-0.4308,-0.4303,-0.4308,-0.4305,-0.4305,-0.4312,-0.4304,-0.4309,-0.4311,-0.4301,-0.431,-0.4306,-0.4307,-0.4305,-0.4312,-0.4302,-0.4308,-0.431,-0.4312,-0.4316,-0.4264,-0.4312,-0.4311,-0.4311,-0.4311,-0.4311,0,-0.4353,-0.4348,-0.4352,-0.4352,-0.4355,-0.4341,-0.434,-0.4344,-0.4351,-0.4349,-0.4352,-0.4358,-0.4363,-0.4355,-0.4358,-0.4365,-0.4359,-0.4366,-0.4367,-0.4366,-0.4324,-0.432,-0.4371,-0.4371,-0.4371,-0.4371,-0.4371,-0.4371,-0.4381,-0.4395,-0.4387,-0.44,-0.4395,-0.4403,-0.4403,-0.4403,-0.4401,-0.4409,-0.4412,-0.4407,-0.4402,-0.4405,-0.4409,-0.4406,-0.4409,-0.4419,-0.4414,-0.4375,-0.4369,-0.4364,-0.436,-0.4419,-0.4419,-0.4456,-0.4457,-0.4457]}]]